Wind_Speed
8 8 7 7 7 7 7 8 8 9 10 10 12 13 14 15 15 16 17 18 18 20 21 22 22 23 23 24 24 25 27 28 28 28 29 29 29 29
9 9 8 8 8 8 8 8 9 9 10 11 12 14 15 15 16 17 18 19 20 20 21 22 23 24 25 25 26 27 28 27 28 29 28 28 29 29
10 10 10 10 10 9 9 10 10 10 11 12 13 14 15 16 17 18 19 20 21 22 22 23 23 24 26 26 27 28 28 28 29 29 30 30 30 29
12 11 11 11 12 12 12 12 12 12 13 13 14 15 16 17 18 19 20 21 22 23 24 25 25 25 26 27 28 28 29 29 29 30 30 31 31 31
14 14 14 14 14 14 14 14 14 15 15 16 16 17 18 19 20 20 20 21 22 23 24 26 26 27 27 27 28 29 30 30 30 31 31 32 33 33
16 16 16 17 17 17 17 17 17 17 18 18 19 19 20 21 22 22 22 23 24 24 25 26 27 28 28 28 29 30 31 31 31 31 32 32 33 34
19 19 19 19 19 19 19 19 20 20 20 21 22 22 22 23 24 25 25 25 26 26 27 27 28 29 30 30 30 31 31 32 32 32 32 33 33 34
22 22 22 22 22 21 21 21 22 22 23 23 24 24 25 26 26 27 28 28 28 28 29 29 30 31 31 32 32 32 32 32 32 33 33 34 35 35
24 24 24 24 24 24 24 24 24 24 25 26 26 27 27 28 28 29 29 30 30 30 30 30 31 32 32 32 33 33 34 34 34 35 35 36 36 36
26 26 26 27 27 27 27 26 27 27 28 28 29 29 30 30 30 30 31 31 32 32 32 32 32 32 32 33 34 34 35 36 36 36 36 37 37 37
29 29 29 29 30 30 30 30 30 30 31 31 32 32 32 32 33 33 33 33 33 34 34 33 33 34 34 34 36 37 37 38 38 39 39 39 39 38
32 32 33 33 33 33 34 34 34 34 34 34 34 35 35 35 36 36 36 36 36 35 36 36 36 36 36 36 37 38 40 40 41 41 41 41 41 40
35 36 36 36 37 37 38 38 38 38 37 37 37 37 38 38 39 39 39 39 39 38 39 39 39 39 39 39 39 40 41 42 43 43 44 44 43 42
39 39 39 40 40 40 41 41 41 41 41 41 41 41 41 41 42 42 42 42 42 42 42 42 42 42 42 42 42 42 43 44 45 45 45 45 45 44
41 42 42 43 43 43 43 43 44 44 44 44 44 45 45 45 45 45 45 45 45 45 45 45 45 45 45 45 45 44 44 44 45 46 46 46 46 46
43 44 44 45 45 45 46 46 46 47 47 48 48 48 48 49 49 49 49 49 48 48 48 48 48 48 48 47 47 46 46 46 45 46 47 47 47 47
45 46 47 47 47 47 47 47 48 48 49 50 50 51 51 51 52 52 52 52 51 51 51 51 51 51 51 50 50 49 48 47 47 47 48 49 49 49
48 48 48 49 49 49 49 49 50 50 51 52 52 53 53 53 53 53 54 53 53 54 54 53 53 53 53 52 52 51 51 50 49 49 49 50 50 49
51 51 51 51 51 51 52 52 52 52 53 54 54 55 55 54 54 54 55 55 55 55 56 55 55 55 55 54 53 53 52 52 51 51 51 51 50 50
53 53 54 54 54 54 54 55 55 55 55 56 56 56 56 56 56 56 56 56 56 56 56 55 55 55 55 55 54 53 53 53 52 52 52 52 52 51
55 55 56 56 57 57 57 57 56 56 56 56 55 55 55 55 55 55 55 55 55 54 54 54 54 54 55 55 55 53 53 53 53 53 53 53 53 52
56 57 57 58 58 58 58 57 57 55 54 54 54 54 54 54 53 53 53 53 53 53 53 52 52 53 53 53 53 53 52 51 52 52 52 52 52 52
57 57 57 57 56 55 54 54 54 53 52 52 52 52 52 52 52 51 51 51 51 51 51 50 50 50 51 51 51 51 49 49 49 49 49 49 49 49
Wind_Direction
347 343 337 331 323 315 305 294 284 274 266 261 255 256 255 253 252 248 246 246 247 246 245 244 245 245 246 246 245 243 241 242 243 243 243 244 244 244
338 335 328 322 317 314 305 297 291 282 276 268 261 261 261 261 258 253 252 251 250 249 248 247 246 246 247 248 247 247 246 246 246 246 247 246 245 246
330 328 323 318 313 310 304 296 292 286 282 277 271 266 263 263 262 258 257 256 254 251 250 248 248 248 249 249 248 249 248 248 247 248 249 249 247 247
319 318 316 313 309 305 302 295 290 287 284 281 277 272 268 266 265 264 263 262 260 256 256 255 254 254 252 250 250 250 249 249 250 249 250 251 251 250
312 310 308 307 305 302 299 296 291 287 285 282 279 276 273 271 269 268 267 266 265 261 260 259 258 258 257 255 253 251 250 250 251 251 251 252 253 252
306 304 303 303 301 299 296 294 291 288 286 283 280 278 275 273 272 270 269 269 269 266 263 261 260 260 259 259 257 253 252 251 251 253 252 252 252 252
301 300 299 298 298 297 294 292 290 287 285 283 281 279 277 275 273 272 270 270 270 267 265 262 260 260 260 260 259 256 254 252 252 253 253 253 253 253
299 296 295 294 294 293 291 290 289 288 286 283 282 280 278 276 275 273 271 270 270 268 267 264 262 261 261 260 260 258 256 255 253 254 255 255 254 255
298 296 293 292 291 291 290 290 289 288 286 284 282 281 279 277 276 274 273 272 270 269 268 266 264 262 261 260 260 259 257 256 255 255 256 256 255 256
295 294 293 291 289 289 288 288 288 288 287 285 284 282 281 279 276 274 273 273 272 271 270 268 266 264 263 261 261 261 259 257 256 256 256 256 256 257
293 292 292 291 289 288 287 287 287 286 286 286 285 283 281 279 277 275 273 272 271 271 270 269 268 267 265 264 263 262 261 260 258 256 256 256 256 256
291 291 291 290 289 288 287 287 286 286 285 284 284 282 281 279 278 276 274 272 270 269 269 269 269 268 267 266 265 264 263 261 260 258 257 257 257 257
291 290 289 289 288 288 287 286 286 285 284 283 282 281 280 280 279 277 275 272 270 269 269 269 269 269 268 267 267 266 265 263 262 261 258 257 257 256
291 290 289 288 288 287 287 286 285 284 283 282 282 281 281 280 279 278 276 273 271 270 269 269 269 269 269 269 268 267 266 264 263 262 260 259 257 257
292 291 290 289 288 287 286 286 285 284 283 282 282 281 280 279 278 277 275 273 271 270 270 269 269 269 269 269 268 268 267 265 263 262 260 259 257 256
292 292 292 290 289 287 287 286 285 284 283 282 281 280 279 278 277 276 274 271 270 270 270 269 269 269 268 268 268 267 267 265 263 262 261 259 258 256
293 292 292 291 289 288 287 286 285 285 284 283 282 281 279 278 277 275 273 270 270 269 269 268 268 268 268 267 266 266 266 265 264 262 261 260 259 257
294 293 293 292 290 289 287 286 285 285 284 284 283 282 280 279 277 275 272 270 270 268 268 268 267 267 266 266 266 266 265 264 263 262 261 261 259 257
294 293 293 292 291 290 288 286 285 285 285 284 283 281 280 279 277 275 273 271 270 268 267 267 266 266 265 264 264 264 263 263 262 262 261 260 257 256
294 293 293 292 291 290 289 287 285 285 285 284 282 281 280 279 278 276 273 272 270 269 267 266 265 265 265 264 263 262 261 261 261 261 260 258 256 256
294 294 293 292 291 290 289 287 286 285 284 283 282 281 280 279 278 276 274 272 271 269 268 266 265 264 264 264 262 260 260 260 259 259 258 257 257 256
295 294 293 293 292 290 289 288 286 285 284 283 282 281 280 279 278 276 274 273 271 269 268 266 264 263 263 263 262 260 260 259 257 257 256 256 257 255
296 295 294 294 293 291 290 289 287 286 284 284 282 280 279 278 277 275 274 273 270 269 267 265 264 263 263 262 262 260 259 258 257 256 256 254 254 254
Height
5843 5842 5840 5839 5838 5837 5836 5836 5836 5836 5836 5835 5835 5836 5836 5837 5837 5838 5839 5839 5840 5841 5842 5843 5845 5846 5848 5849 5850 5852 5853 5855 5857 5858 5860 5862 5863 5865
5842 5841 5839 5838 5837 5836 5835 5834 5833 5833 5833 5833 5833 5833 5833 5833 5834 5834 5835 5836 5836 5837 5838 5839 5840 5841 5843 5844 5845 5846 5847 5849 5851 5853 5854 5855 5856 5858
5841 5839 5838 5837 5835 5834 5833 5832 5831 5831 5830 5830 5830 5830 5830 5830 5830 5830 5831 5831 5832 5833 5833 5834 5835 5836 5837 5838 5839 5840 5842 5843 5845 5846 5848 5849 5850 5852
5839 5837 5836 5834 5833 5832 5831 5830 5829 5828 5827 5827 5826 5826 5826 5826 5826 5826 5826 5826 5827 5827 5827 5828 5829 5830 5831 5832 5833 5834 5835 5836 5838 5839 5841 5843 5844 5846
5836 5835 5833 5832 5830 5829 5827 5826 5825 5824 5823 5823 5822 5822 5821 5821 5821 5821 5821 5821 5821 5821 5821 5822 5822 5823 5824 5825 5826 5827 5828 5830 5831 5832 5834 5836 5837 5838
5833 5831 5829 5828 5826 5824 5823 5822 5820 5819 5818 5818 5817 5816 5816 5815 5815 5815 5815 5815 5815 5814 5814 5815 5815 5816 5817 5818 5819 5819 5821 5822 5823 5825 5826 5828 5829 5830
5828 5826 5825 5823 5821 5819 5818 5816 5815 5813 5812 5811 5810 5810 5809 5809 5808 5808 5808 5808 5807 5807 5807 5807 5807 5808 5808 5809 5810 5811 5812 5813 5815 5816 5818 5819 5821 5822
5823 5821 5819 5817 5815 5813 5812 5810 5808 5807 5805 5804 5803 5802 5801 5801 5800 5800 5800 5800 5800 5799 5798 5799 5799 5799 5800 5801 5801 5802 5804 5805 5806 5808 5809 5811 5812 5813
5816 5814 5812 5810 5809 5807 5805 5804 5802 5800 5798 5797 5795 5794 5793 5792 5791 5791 5790 5790 5790 5790 5789 5789 5789 5790 5790 5791 5792 5793 5794 5795 5797 5799 5800 5801 5803 5804
5809 5807 5805 5803 5801 5799 5798 5796 5794 5792 5790 5788 5787 5785 5784 5783 5781 5781 5780 5780 5780 5780 5779 5780 5780 5780 5780 5781 5782 5783 5784 5785 5787 5789 5790 5792 5793 5794
5801 5799 5797 5795 5793 5791 5789 5787 5785 5783 5781 5779 5777 5775 5773 5772 5771 5770 5770 5769 5770 5770 5769 5769 5769 5769 5770 5771 5771 5772 5773 5774 5776 5777 5779 5781 5782 5783
5792 5790 5788 5786 5783 5781 5779 5777 5775 5773 5771 5769 5766 5764 5762 5761 5760 5759 5758 5758 5758 5759 5758 5758 5758 5758 5759 5760 5760 5760 5761 5762 5764 5765 5767 5769 5770 5771
5781 5779 5777 5774 5772 5769 5767 5765 5763 5761 5759 5757 5755 5753 5751 5749 5747 5746 5745 5745 5746 5746 5747 5746 5747 5746 5747 5748 5748 5748 5748 5749 5750 5752 5754 5755 5757 5759
5770 5767 5765 5762 5760 5757 5754 5752 5750 5748 5746 5744 5742 5740 5738 5736 5734 5733 5732 5731 5732 5733 5733 5733 5733 5733 5733 5734 5735 5735 5735 5735 5736 5738 5739 5741 5743 5745
5758 5755 5752 5749 5746 5743 5741 5738 5736 5733 5731 5730 5728 5726 5724 5722 5720 5719 5717 5717 5717 5718 5718 5718 5718 5719 5719 5719 5720 5720 5720 5721 5721 5723 5724 5726 5728 5731
5744 5741 5738 5734 5731 5728 5726 5723 5720 5718 5715 5713 5712 5710 5708 5706 5704 5703 5701 5701 5702 5702 5702 5702 5702 5703 5703 5704 5704 5705 5705 5706 5707 5708 5709 5711 5713 5716
5730 5727 5724 5720 5717 5713 5710 5707 5704 5702 5699 5697 5694 5692 5690 5688 5687 5685 5684 5684 5684 5685 5686 5686 5685 5685 5686 5687 5688 5689 5690 5691 5692 5693 5694 5696 5698 5700
5715 5712 5708 5704 5701 5697 5694 5691 5688 5685 5683 5680 5677 5674 5672 5670 5668 5667 5665 5665 5666 5667 5667 5668 5668 5668 5669 5670 5671 5672 5673 5674 5676 5677 5678 5680 5682 5685
5700 5696 5692 5688 5684 5680 5677 5674 5671 5668 5665 5662 5659 5656 5653 5651 5649 5648 5647 5646 5646 5647 5648 5648 5649 5649 5650 5653 5654 5654 5655 5657 5658 5660 5661 5663 5666 5668
5683 5679 5675 5671 5667 5663 5659 5656 5652 5649 5646 5643 5639 5637 5634 5632 5630 5628 5627 5626 5626 5627 5628 5628 5629 5629 5630 5633 5635 5637 5636 5637 5639 5641 5643 5645 5648 5651
5667 5662 5657 5653 5648 5644 5640 5636 5633 5629 5626 5623 5620 5617 5615 5612 5610 5609 5607 5607 5606 5606 5607 5609 5609 5610 5610 5612 5614 5618 5619 5619 5621 5623 5625 5628 5631 5634
5649 5644 5639 5634 5629 5624 5620 5616 5612 5609 5606 5603 5600 5598 5595 5593 5591 5590 5588 5588 5587 5587 5588 5589 5590 5590 5591 5592 5595 5598 5600 5601 5602 5604 5607 5610 5612 5617
5631 5626 5620 5615 5610 5605 5601 5597 5593 5590 5587 5583 5581 5579 5576 5575 5573 5571 5570 5569 5568 5568 5569 5570 5571 5572 5573 5574 5576 5578 5580 5582 5584 5587 5590 5593 5596 5599